Showing default

BSAT-3A, 32019

Orbit data source: Space-Track

BSAT-3A, 32019 is a payload satellite owned by BSAT (JP) in GEO that was launched on Tue, 14 Aug 2007 UTC via an ARIANE 5ECA launch vehicle from the French Guiana (FRGUI). Payload-class satellites include a variety of spacecraft equipped with specific instruments for various scientific and technological missions. These include communications satellites like Starlink; space stations such as the ISS; scientific satellites like the Hubble; Earth observation satellites from companies like Planet Labs, Umbra, and HawkEye 360; GPS; miniature CubeSats for education and research; and military/defense satellites.

Loading next visibility...
Identifier
32019, 2007-036B
Orbit
GEO
Country
Flag of JPJP / JPN
Related business
Manufacturer
LMCSS
Mission
Non-operational Commercial Communications
Bus & Motor
A2100A, LEROS?
Mass
1,967 kg wet, 930 kg dry
Launch date (UTC)
2007-08-14 (18 years ago)
Launch vehicle
ARIANE 5ECA
Launch site
French Guiana (FRGUI)
Object type
Payload
Rocket body
Debris
Shape & HBR
Box + 2 Pan, 7.3 m
Radar Cross Section
15.563 m², Large (>1 m²)

Expand to show TLE details & history
Last TLE update: 15 hours ago

TLE from 15 hours ago
0 BSAT-3A
1 32019U 07036B   25259.56440527 -.00000016  00000-0  00000-0 0  9995
2 32019   0.9414  95.8234 0005801  98.9254 266.8722  0.99137861 47768
Epoch: 2025-09-16T13:32Z
TLE epoch observation values (Epoch: 2025-09-16T13:32:44.615Z)
Latitude
0.07641°
Longitude
-97.38591°
Altitude
36,108.261 km
Speed
3.063 km/s
True Right ascension
06h 46m 12s
True Declination
0° 04' 35"
Sunlit
Object was in daylight at epoch
Visualization orbit readout
Latitude
Unknown
Longitude
Unknown
Altitude
Unknown
Speed
Unknown
Apparent Right ascension
Unknown
Apparent Declination
Unknown
Sunlit
N/A
Visualization observer readout
Local Sidereal Time
21:05:55
Azimuth
Unknown
Elevation
Unknown
Doppler factor
Unknown
Orbital elements
Apogee altitude
36,133.21 km
Perigee altitude
36,083.917 km
Semi-major axis
42,486.7 km
Eccentricity
0.00058
Inclination
0.9414°
RAAN
95.8234°
Arg. of periapsis
98.9254°
True anomaly
266.80583°
Mean anomaly
266.8722°
Eccentric anomaly
266.83901°
Mean motion
0.24784 °/min
Orbital period
1,452.58 mins
BSTAR
0
Loading maneuver chart data...
Computing Atmospheric mass density...
Loading historical data...
Loading historical data...
Loading historical data...
Loading historical data...
Loading historical data...
Loading historical data...
Loading historical data...
Other satellites on launch #36 in the year 2007 (2007-08-14 UTC)

Documentation

Showing up to 5 results
|